Torna al catalogo

ONEWEB-0139

AttivoComunicazioniPO
NORAD 47285·PAYLOAD·🇬🇧 United Kingdom

Lanciato Dec 18, 2020 da Vostochny Cosmodrome

Loading…

Prossimi Passaggi (prossime 24 ore)

TLE

AggiornatoSource: CelesTrak SupGP

Epoca: Sep 14, 2026, 22:05 UTC

1 47285C 20100AD  26257.92062917 -.00000080  00000+0 -22172-3 0  2570
2 47285  87.8985 332.8396 0001856 100.3678   1.1956 13.12440714    12

Traccia ONEWEB-0139 in tempo reale con AllMySat

Download on the App Store